Year,Month,Day,Hour,Minute,Value (Times are PST for temperature in C)
2007,08,28,00,00,11.90
2007,08,28,00,01,11.90
2007,08,28,00,02,11.90
2007,08,28,00,03,11.90
2007,08,28,00,04,11.90
2007,08,28,00,05,11.90
2007,08,28,00,06,11.90
2007,08,28,00,07,11.90
2007,08,28,00,08,11.90
2007,08,28,00,09,11.90
2007,08,28,00,10,11.90
2007,08,28,00,11,11.90
2007,08,28,00,12,11.90
2007,08,28,00,13,11.90
2007,08,28,00,14,11.90
2007,08,28,00,15,11.90
2007,08,28,00,16,11.90
2007,08,28,00,17,11.90
2007,08,28,00,18,11.90
2007,08,28,00,19,11.80
2007,08,28,00,20,11.80
2007,08,28,00,21,11.80
2007,08,28,00,22,11.80
2007,08,28,00,23,11.80
2007,08,28,00,24,11.80
2007,08,28,00,25,11.80
2007,08,28,00,26,11.80
2007,08,28,00,27,11.80
2007,08,28,00,28,11.80
2007,08,28,00,29,11.80
2007,08,28,00,30,11.80
2007,08,28,00,31,11.80
2007,08,28,00,32,11.70
2007,08,28,00,33,11.70
2007,08,28,00,34,11.70
2007,08,28,00,35,11.70
2007,08,28,00,36,11.70
2007,08,28,00,37,11.70
2007,08,28,00,38,11.70
2007,08,28,00,39,11.70
2007,08,28,00,40,11.70
2007,08,28,00,41,11.60
2007,08,28,00,42,11.60
2007,08,28,00,43,11.60
2007,08,28,00,44,11.60
2007,08,28,00,45,11.60
2007,08,28,00,46,11.60
2007,08,28,00,47,11.60
2007,08,28,00,48,11.60
2007,08,28,00,49,11.60
2007,08,28,00,50,11.60
2007,08,28,00,51,11.60
2007,08,28,00,52,11.60
2007,08,28,00,53,11.60
2007,08,28,00,54,11.60
2007,08,28,00,55,11.60
2007,08,28,00,56,11.60
2007,08,28,00,57,11.60
2007,08,28,00,58,11.60
2007,08,28,00,59,11.60
2007,08,28,01,00,11.60
2007,08,28,01,01,11.60
2007,08,28,01,02,11.60
2007,08,28,01,03,11.60
2007,08,28,01,04,11.60
2007,08,28,01,05,11.50
2007,08,28,01,06,11.40
2007,08,28,01,07,11.40
2007,08,28,01,08,11.40
2007,08,28,01,09,11.40
2007,08,28,01,10,11.40
2007,08,28,01,11,11.40
2007,08,28,01,12,11.40
2007,08,28,01,13,11.40
2007,08,28,01,14,11.40
2007,08,28,01,15,11.30
2007,08,28,01,16,11.30
2007,08,28,01,17,11.30
2007,08,28,01,18,11.30
2007,08,28,01,19,11.30
2007,08,28,01,20,11.20
2007,08,28,01,21,11.20
2007,08,28,01,22,11.20
2007,08,28,01,23,11.10
2007,08,28,01,24,11.10
2007,08,28,01,25,11.10
2007,08,28,01,26,11.10
2007,08,28,01,27,11.10
2007,08,28,01,28,11.10
2007,08,28,01,29,11.10
2007,08,28,01,30,11.10
2007,08,28,01,31,11.10
2007,08,28,01,32,11.10
2007,08,28,01,33,11.10
2007,08,28,01,34,11.10
2007,08,28,01,35,11.10
2007,08,28,01,36,11.10
2007,08,28,01,37,11.10
2007,08,28,01,38,11.10
2007,08,28,01,39,11.10
2007,08,28,01,40,11.10
2007,08,28,01,41,11.10
2007,08,28,01,42,11.10
2007,08,28,01,43,11.10
2007,08,28,01,44,11.10
2007,08,28,01,45,11.10
2007,08,28,01,46,11.10
2007,08,28,01,47,11.10
2007,08,28,01,48,11.10
2007,08,28,01,49,11.10
2007,08,28,01,50,11.10
2007,08,28,01,51,11.10
2007,08,28,01,52,11.10
2007,08,28,01,53,11.10
2007,08,28,01,54,11.10
2007,08,28,01,55,11.10
2007,08,28,01,56,11.10
2007,08,28,01,57,11.10
2007,08,28,01,58,11.10
2007,08,28,01,59,11.10
2007,08,28,02,00,11.10
2007,08,28,02,01,11.10
2007,08,28,02,02,11.10
2007,08,28,02,03,11.10
2007,08,28,02,04,11.10
2007,08,28,02,05,11.10
2007,08,28,02,06,11.10
2007,08,28,02,07,11.10
2007,08,28,02,08,11.10
2007,08,28,02,09,11.10
2007,08,28,02,10,11.00
2007,08,28,02,11,10.90
2007,08,28,02,12,10.90
2007,08,28,02,13,10.90
2007,08,28,02,14,10.90
2007,08,28,02,15,10.90
2007,08,28,02,16,10.90
2007,08,28,02,17,10.90
2007,08,28,02,18,10.90
2007,08,28,02,19,10.80
2007,08,28,02,20,10.80
2007,08,28,02,21,10.80
2007,08,28,02,22,10.80
2007,08,28,02,23,10.80
2007,08,28,02,24,10.70
2007,08,28,02,25,10.70
2007,08,28,02,26,10.70
2007,08,28,02,27,10.70
2007,08,28,02,28,10.70
2007,08,28,02,29,10.70
2007,08,28,02,30,10.70
2007,08,28,02,31,10.70
2007,08,28,02,32,10.70
2007,08,28,02,33,10.60
2007,08,28,02,34,10.60
2007,08,28,02,35,10.60
2007,08,28,02,36,10.60
2007,08,28,02,37,10.60
2007,08,28,02,38,10.60
2007,08,28,02,39,10.50
2007,08,28,02,40,10.40
2007,08,28,02,41,10.40
2007,08,28,02,42,10.40
2007,08,28,02,43,10.40
2007,08,28,02,44,10.40
2007,08,28,02,45,10.40
2007,08,28,02,46,10.30
2007,08,28,02,47,10.30
2007,08,28,02,48,10.30
2007,08,28,02,49,10.30
2007,08,28,02,50,10.30
2007,08,28,02,51,10.30
2007,08,28,02,52,10.20
2007,08,28,02,53,10.20
2007,08,28,02,54,10.20
2007,08,28,02,55,10.20
2007,08,28,02,56,10.20
2007,08,28,02,57,10.20
2007,08,28,02,58,10.10
2007,08,28,02,59,10.10
2007,08,28,03,00,10.10
2007,08,28,03,01,10.10
2007,08,28,03,02,10.10
2007,08,28,03,03,10.10
2007,08,28,03,04,10.10
2007,08,28,03,05,10.10
2007,08,28,03,06,10.10
2007,08,28,03,07,10.10
2007,08,28,03,08,10.10
2007,08,28,03,09,10.10
2007,08,28,03,10,10.10
2007,08,28,03,11,10.10
2007,08,28,03,12,10.10
2007,08,28,03,13,10.10
2007,08,28,03,14,10.10
2007,08,28,03,15,10.10
2007,08,28,03,16,10.10
2007,08,28,03,17,10.10
2007,08,28,03,18,10.10
2007,08,28,03,19,10.10
2007,08,28,03,20,10.10
2007,08,28,03,21,10.10
2007,08,28,03,22,10.10
2007,08,28,03,23,10.10
2007,08,28,03,24,10.10
2007,08,28,03,25,10.00
2007,08,28,03,26,9.90
2007,08,28,03,27,9.90
2007,08,28,03,28,9.90
2007,08,28,03,29,9.90
2007,08,28,03,30,9.90
2007,08,28,03,31,9.90
2007,08,28,03,32,9.90
2007,08,28,03,33,9.90
2007,08,28,03,34,9.90
2007,08,28,03,35,9.90
2007,08,28,03,36,9.90
2007,08,28,03,37,9.90
2007,08,28,03,38,9.90
2007,08,28,03,39,9.90
2007,08,28,03,40,9.90
2007,08,28,03,41,9.90
2007,08,28,03,42,9.90
2007,08,28,03,43,9.90
2007,08,28,03,44,9.80
2007,08,28,03,45,9.90
2007,08,28,03,46,9.80
2007,08,28,03,47,9.80
2007,08,28,03,48,9.80
2007,08,28,03,49,9.80
2007,08,28,03,50,9.80
2007,08,28,03,51,9.80
2007,08,28,03,52,9.80
2007,08,28,03,53,9.80
2007,08,28,03,54,9.80
2007,08,28,03,55,9.70
2007,08,28,03,56,9.70
2007,08,28,03,57,9.70
2007,08,28,03,58,9.70
2007,08,28,03,59,9.70
2007,08,28,04,00,9.70
2007,08,28,04,01,9.70
2007,08,28,04,02,9.70
2007,08,28,04,03,9.70
2007,08,28,04,04,9.70
2007,08,28,04,05,9.70
2007,08,28,04,06,9.70
2007,08,28,04,07,9.70
2007,08,28,04,08,9.60
2007,08,28,04,09,9.60
2007,08,28,04,10,9.60
2007,08,28,04,11,9.60
2007,08,28,04,12,9.60
2007,08,28,04,13,9.50
2007,08,28,04,14,9.50
2007,08,28,04,15,9.50
2007,08,28,04,16,9.50
2007,08,28,04,17,9.50
2007,08,28,04,18,9.50
2007,08,28,04,19,9.50
2007,08,28,04,20,9.50
2007,08,28,04,21,9.50
2007,08,28,04,22,9.50
2007,08,28,04,23,9.40
2007,08,28,04,24,9.40
2007,08,28,04,25,9.50
2007,08,28,04,26,9.50
2007,08,28,04,27,9.50
2007,08,28,04,28,9.50
2007,08,28,04,29,9.50
2007,08,28,04,30,9.40
2007,08,28,04,31,9.40
2007,08,28,04,32,9.40
2007,08,28,04,33,9.40
2007,08,28,04,34,9.40
2007,08,28,04,35,9.40
2007,08,28,04,36,9.40
2007,08,28,04,37,9.40
2007,08,28,04,38,9.40
2007,08,28,04,39,9.40
2007,08,28,04,40,9.40
2007,08,28,04,41,9.40
2007,08,28,04,42,9.40
2007,08,28,04,43,9.40
2007,08,28,04,44,9.40
2007,08,28,04,45,9.40
2007,08,28,04,46,9.40
2007,08,28,04,47,9.40
2007,08,28,04,48,9.40
2007,08,28,04,49,9.40
2007,08,28,04,50,9.40
2007,08,28,04,51,9.40
2007,08,28,04,52,9.40
2007,08,28,04,53,9.40
2007,08,28,04,54,9.40
2007,08,28,04,55,9.40
2007,08,28,04,56,9.40
2007,08,28,04,57,9.40
2007,08,28,04,58,9.40
2007,08,28,04,59,9.40
2007,08,28,05,00,9.40
2007,08,28,05,01,9.30
2007,08,28,05,02,9.30
2007,08,28,05,03,9.30
2007,08,28,05,04,9.30
2007,08,28,05,05,9.30
2007,08,28,05,06,9.30
2007,08,28,05,07,9.30
2007,08,28,05,08,9.30
2007,08,28,05,09,9.30
2007,08,28,05,10,9.30
2007,08,28,05,11,9.30
2007,08,28,05,12,9.30
2007,08,28,05,13,9.30
2007,08,28,05,14,9.30
2007,08,28,05,15,9.30
2007,08,28,05,16,9.30
2007,08,28,05,17,9.30
2007,08,28,05,18,9.30
2007,08,28,05,19,9.30
2007,08,28,05,20,9.30
2007,08,28,05,21,9.30
2007,08,28,05,22,9.30
2007,08,28,05,23,9.30
2007,08,28,05,24,9.30
2007,08,28,05,25,9.30
2007,08,28,05,26,9.30
2007,08,28,05,27,9.30
2007,08,28,05,28,9.30
2007,08,28,05,29,9.30
2007,08,28,05,30,9.30
2007,08,28,05,31,9.30
2007,08,28,05,32,9.40
2007,08,28,05,33,9.40
2007,08,28,05,34,9.40
2007,08,28,05,35,9.40
2007,08,28,05,36,9.40
2007,08,28,05,37,9.40
2007,08,28,05,38,9.30
2007,08,28,05,39,9.30
2007,08,28,05,40,9.30
2007,08,28,05,41,9.30
2007,08,28,05,42,9.30
2007,08,28,05,43,9.30
2007,08,28,05,44,9.30
2007,08,28,05,45,9.30
2007,08,28,05,46,9.30
2007,08,28,05,47,9.30
2007,08,28,05,48,9.30
2007,08,28,05,49,9.30
2007,08,28,05,50,9.30
2007,08,28,05,51,9.20
2007,08,28,05,52,9.20
2007,08,28,05,53,9.20
2007,08,28,05,54,9.20
2007,08,28,05,55,9.20
2007,08,28,05,56,9.20
2007,08,28,05,57,9.20
2007,08,28,05,58,9.20
2007,08,28,05,59,9.20
2007,08,28,06,00,9.20
2007,08,28,06,01,9.20
2007,08,28,06,02,9.20
2007,08,28,06,03,9.20
2007,08,28,06,04,9.20
2007,08,28,06,05,9.20
2007,08,28,06,06,9.20
2007,08,28,06,07,9.30
2007,08,28,06,08,9.30
2007,08,28,06,09,9.30
2007,08,28,06,10,9.20
2007,08,28,06,11,9.20
2007,08,28,06,12,9.20
2007,08,28,06,13,9.20
2007,08,28,06,14,9.20
2007,08,28,06,15,9.20
2007,08,28,06,16,9.20
2007,08,28,06,17,9.20
2007,08,28,06,18,9.20
2007,08,28,06,19,9.20
2007,08,28,06,20,9.20
2007,08,28,06,21,9.20
2007,08,28,06,22,9.20
2007,08,28,06,23,9.20
2007,08,28,06,24,9.20
2007,08,28,06,25,9.20
2007,08,28,06,26,9.20
2007,08,28,06,27,9.20
2007,08,28,06,28,9.20
2007,08,28,06,29,9.20
2007,08,28,06,30,9.20
2007,08,28,06,31,9.30
2007,08,28,06,32,9.30
2007,08,28,06,33,9.30
2007,08,28,06,34,9.30
2007,08,28,06,35,9.30
2007,08,28,06,36,9.30
2007,08,28,06,37,9.30
2007,08,28,06,38,9.40
2007,08,28,06,39,9.40
2007,08,28,06,40,9.40
2007,08,28,06,41,9.40
2007,08,28,06,42,9.50
2007,08,28,06,43,9.50
2007,08,28,06,44,9.50
2007,08,28,06,45,9.50
2007,08,28,06,46,9.50
2007,08,28,06,47,9.50
2007,08,28,06,48,9.50
2007,08,28,06,49,9.60
2007,08,28,06,50,9.60
2007,08,28,06,51,9.60
2007,08,28,06,52,9.60
2007,08,28,06,53,9.50
2007,08,28,06,54,9.50
2007,08,28,06,55,9.60
2007,08,28,06,56,9.60
2007,08,28,06,57,9.60
2007,08,28,06,58,9.60
2007,08,28,06,59,9.60
2007,08,28,07,00,9.60
2007,08,28,07,01,9.60
2007,08,28,07,02,9.60
2007,08,28,07,03,9.60
2007,08,28,07,04,9.60
2007,08,28,07,05,9.60
2007,08,28,07,06,9.70
2007,08,28,07,07,9.70
2007,08,28,07,08,9.70
2007,08,28,07,09,9.70
2007,08,28,07,10,9.70
2007,08,28,07,11,9.70
2007,08,28,07,12,9.70
2007,08,28,07,13,9.70
2007,08,28,07,14,9.70
2007,08,28,07,15,9.80
2007,08,28,07,16,9.80
2007,08,28,07,17,9.90
2007,08,28,07,18,9.90
2007,08,28,07,19,9.90
2007,08,28,07,20,10.00
2007,08,28,07,21,10.10
2007,08,28,07,22,10.10
2007,08,28,07,23,10.20
2007,08,28,07,24,10.30
2007,08,28,07,25,10.40
2007,08,28,07,26,10.40
2007,08,28,07,27,10.40
2007,08,28,07,28,10.50
2007,08,28,07,29,10.60
2007,08,28,07,30,10.60
2007,08,28,07,31,10.60
2007,08,28,07,32,10.60
2007,08,28,07,33,10.60
2007,08,28,07,34,10.60
2007,08,28,07,35,10.70
2007,08,28,07,36,10.70
2007,08,28,07,37,10.70
2007,08,28,07,38,10.80
2007,08,28,07,39,10.80
2007,08,28,07,40,10.80
2007,08,28,07,41,10.90
2007,08,28,07,42,10.90
2007,08,28,07,43,10.90
2007,08,28,07,44,10.90
2007,08,28,07,45,10.90
2007,08,28,07,46,10.90
2007,08,28,07,47,11.00
2007,08,28,07,48,11.10
2007,08,28,07,49,11.10
2007,08,28,07,50,11.10
2007,08,28,07,51,11.10
2007,08,28,07,52,11.10
2007,08,28,07,53,11.20
2007,08,28,07,54,11.20
2007,08,28,07,55,11.30
2007,08,28,07,56,11.30
2007,08,28,07,57,11.30
2007,08,28,07,58,11.40
2007,08,28,07,59,11.40
2007,08,28,08,00,11.50
2007,08,28,08,01,11.60
2007,08,28,08,02,11.60
2007,08,28,08,03,11.70
2007,08,28,08,04,11.70
2007,08,28,08,05,11.80
2007,08,28,08,06,11.80
2007,08,28,08,07,11.80
2007,08,28,08,08,11.80
2007,08,28,08,09,11.90
2007,08,28,08,10,12.00
2007,08,28,08,11,12.00
2007,08,28,08,12,12.10
2007,08,28,08,13,12.10
2007,08,28,08,14,12.20
2007,08,28,08,15,12.20
2007,08,28,08,16,12.30
2007,08,28,08,17,12.40
2007,08,28,08,18,12.40
2007,08,28,08,19,12.50
2007,08,28,08,20,12.50
2007,08,28,08,21,12.60
2007,08,28,08,22,12.60
2007,08,28,08,23,12.70
2007,08,28,08,24,12.80
2007,08,28,08,25,12.80
2007,08,28,08,26,12.90
2007,08,28,08,27,13.00
2007,08,28,08,28,13.10
2007,08,28,08,29,13.10
2007,08,28,08,30,13.20
2007,08,28,08,31,13.20
2007,08,28,08,32,13.30
2007,08,28,08,33,13.30
2007,08,28,08,34,13.40
2007,08,28,08,35,13.40
2007,08,28,08,36,13.50
2007,08,28,08,37,13.60
2007,08,28,08,38,13.60
2007,08,28,08,39,13.70
2007,08,28,08,40,13.70
2007,08,28,08,41,13.80
2007,08,28,08,42,13.90
2007,08,28,08,43,14.00
2007,08,28,08,44,14.00
2007,08,28,08,45,14.20
2007,08,28,08,46,14.30
2007,08,28,08,47,14.40
2007,08,28,08,48,14.50
2007,08,28,08,49,14.50
2007,08,28,08,50,14.60
2007,08,28,08,51,14.60
2007,08,28,08,52,14.70
2007,08,28,08,53,14.80
2007,08,28,08,54,14.80
2007,08,28,08,55,14.90
2007,08,28,08,56,15.00
2007,08,28,08,57,15.00
2007,08,28,08,58,15.10
2007,08,28,08,59,15.10
2007,08,28,09,00,15.20
2007,08,28,09,01,15.30
2007,08,28,09,02,15.30
2007,08,28,09,03,15.30
2007,08,28,09,04,15.30
2007,08,28,09,05,15.40
2007,08,28,09,06,15.40
2007,08,28,09,07,15.40
2007,08,28,09,08,15.40
2007,08,28,09,09,15.50
2007,08,28,09,10,15.50
2007,08,28,09,11,15.50
2007,08,28,09,12,15.50
2007,08,28,09,13,15.60
2007,08,28,09,14,15.60
2007,08,28,09,15,15.70
2007,08,28,09,16,15.80
2007,08,28,09,17,15.80
2007,08,28,09,18,15.80
2007,08,28,09,19,15.80
2007,08,28,09,20,15.80
2007,08,28,09,21,15.90
2007,08,28,09,22,15.90
2007,08,28,09,23,16.00
2007,08,28,09,24,16.10
2007,08,28,09,25,16.10
2007,08,28,09,26,16.10
2007,08,28,09,27,16.10
2007,08,28,09,28,16.10
2007,08,28,09,29,16.10
2007,08,28,09,30,16.10
2007,08,28,09,31,16.20
2007,08,28,09,32,16.30
2007,08,28,09,33,16.40
2007,08,28,09,34,16.40
2007,08,28,09,35,16.40
2007,08,28,09,36,16.40
2007,08,28,09,37,16.40
2007,08,28,09,38,16.40
2007,08,28,09,39,16.40
2007,08,28,09,40,16.40
2007,08,28,09,41,16.40
2007,08,28,09,42,16.40
2007,08,28,09,43,16.50
2007,08,28,09,44,16.60
2007,08,28,09,45,16.60
2007,08,28,09,46,16.70
2007,08,28,09,47,16.70
2007,08,28,09,48,16.70
2007,08,28,09,49,16.80
2007,08,28,09,50,16.80
2007,08,28,09,51,16.90
2007,08,28,09,52,16.90
2007,08,28,09,53,17.00
2007,08,28,09,54,17.00
2007,08,28,09,55,17.10
2007,08,28,09,56,17.20
2007,08,28,09,57,17.20
2007,08,28,09,58,17.10
2007,08,28,09,59,17.10
2007,08,28,10,00,17.20
2007,08,28,10,01,17.20
2007,08,28,10,02,17.20
2007,08,28,10,03,17.20
2007,08,28,10,04,17.30
2007,08,28,10,05,17.30
2007,08,28,10,06,17.30
2007,08,28,10,07,17.40
2007,08,28,10,08,17.50
2007,08,28,10,09,17.50
2007,08,28,10,10,17.60
2007,08,28,10,11,17.80
2007,08,28,10,12,17.80
2007,08,28,10,13,17.90
2007,08,28,10,14,18.00
2007,08,28,10,15,18.10
2007,08,28,10,16,18.20
2007,08,28,10,17,18.20
2007,08,28,10,18,18.20
2007,08,28,10,19,18.30
2007,08,28,10,20,18.30
2007,08,28,10,21,18.40
2007,08,28,10,22,18.50
2007,08,28,10,23,18.60
2007,08,28,10,24,18.70
2007,08,28,10,25,18.80
2007,08,28,10,26,18.80
2007,08,28,10,27,18.90
2007,08,28,10,28,18.80
2007,08,28,10,29,18.90
2007,08,28,10,30,18.90
2007,08,28,10,31,19.00
2007,08,28,10,32,19.10
2007,08,28,10,33,19.20
2007,08,28,10,34,19.30
2007,08,28,10,35,19.40
2007,08,28,10,36,19.40
2007,08,28,10,37,19.50
2007,08,28,10,38,19.40
2007,08,28,10,39,19.30
2007,08,28,10,40,19.30
2007,08,28,10,41,19.20
2007,08,28,10,42,19.20
2007,08,28,10,43,19.30
2007,08,28,10,44,19.20
2007,08,28,10,45,19.10
2007,08,28,10,46,18.90
2007,08,28,10,47,18.90
2007,08,28,10,48,18.90
2007,08,28,10,49,19.00
2007,08,28,10,50,19.10
2007,08,28,10,51,19.10
2007,08,28,10,52,19.20
2007,08,28,10,53,19.20
2007,08,28,10,54,19.30
2007,08,28,10,55,19.30
2007,08,28,10,56,19.30
2007,08,28,10,57,19.40
2007,08,28,10,58,19.40
2007,08,28,10,59,19.50
2007,08,28,11,00,19.50
2007,08,28,11,01,19.60
2007,08,28,11,02,19.60
2007,08,28,11,03,19.60
2007,08,28,11,04,19.70
2007,08,28,11,05,19.70
2007,08,28,11,06,19.60
2007,08,28,11,07,19.60
2007,08,28,11,08,19.60
2007,08,28,11,09,19.60
2007,08,28,11,10,19.60
2007,08,28,11,11,19.60
2007,08,28,11,12,19.60
2007,08,28,11,13,19.80
2007,08,28,11,14,19.90
2007,08,28,11,15,20.00
2007,08,28,11,16,20.10
2007,08,28,11,17,20.10
2007,08,28,11,18,20.20
2007,08,28,11,19,20.20
2007,08,28,11,20,20.20
2007,08,28,11,21,20.20
2007,08,28,11,22,20.30
2007,08,28,11,23,20.30
2007,08,28,11,24,20.30
2007,08,28,11,25,20.30
2007,08,28,11,26,20.20
2007,08,28,11,27,20.10
2007,08,28,11,28,20.00
2007,08,28,11,29,19.90
2007,08,28,11,30,19.90
2007,08,28,11,31,19.90
2007,08,28,11,32,19.90
2007,08,28,11,33,19.90
2007,08,28,11,34,19.90
2007,08,28,11,35,19.90
2007,08,28,11,36,19.90
2007,08,28,11,37,19.90
2007,08,28,11,38,19.90
2007,08,28,11,39,19.80
2007,08,28,11,40,19.70
2007,08,28,11,41,19.60
2007,08,28,11,42,19.50
2007,08,28,11,43,19.40
2007,08,28,11,44,19.40
2007,08,28,11,45,19.30
2007,08,28,11,46,19.40
2007,08,28,11,47,19.40
2007,08,28,11,48,19.40
2007,08,28,11,49,19.50
2007,08,28,11,50,19.50
2007,08,28,11,51,19.60
2007,08,28,11,52,19.60
2007,08,28,11,53,19.70
2007,08,28,11,54,19.70
2007,08,28,11,55,19.70
2007,08,28,11,56,19.70
2007,08,28,11,57,19.80
2007,08,28,11,58,19.90
2007,08,28,11,59,19.90
2007,08,28,12,00,19.90
2007,08,28,12,01,20.10
2007,08,28,12,02,20.20
2007,08,28,12,03,20.20
2007,08,28,12,04,20.30
2007,08,28,12,05,20.40
2007,08,28,12,06,20.50
2007,08,28,12,07,20.50
2007,08,28,12,08,20.50
2007,08,28,12,09,20.50
2007,08,28,12,10,20.50
2007,08,28,12,11,20.50
2007,08,28,12,12,20.50
2007,08,28,12,13,20.60
2007,08,28,12,14,20.60
2007,08,28,12,15,20.60
2007,08,28,12,16,20.60
2007,08,28,12,17,20.60
2007,08,28,12,18,20.60
2007,08,28,12,19,20.60
2007,08,28,12,20,20.60
2007,08,28,12,21,20.60
2007,08,28,12,22,20.60
2007,08,28,12,23,20.70
2007,08,28,12,24,20.70
2007,08,28,12,25,20.80
2007,08,28,12,26,20.80
2007,08,28,12,27,21.00
2007,08,28,12,28,21.00
2007,08,28,12,29,21.10
2007,08,28,12,30,21.20
2007,08,28,12,31,21.20
2007,08,28,12,32,21.20
2007,08,28,12,33,21.20
2007,08,28,12,34,21.20
2007,08,28,12,35,21.10
2007,08,28,12,36,21.00
2007,08,28,12,37,21.00
2007,08,28,12,38,21.00
2007,08,28,12,39,21.00
2007,08,28,12,40,21.00
2007,08,28,12,41,20.80
2007,08,28,12,42,20.70
2007,08,28,12,43,20.60
2007,08,28,12,44,20.70
2007,08,28,12,45,20.80
2007,08,28,12,46,20.80
2007,08,28,12,47,20.80
2007,08,28,12,48,20.80
2007,08,28,12,49,20.80
2007,08,28,12,50,20.70
2007,08,28,12,51,20.60
2007,08,28,12,52,20.50
2007,08,28,12,53,20.50
2007,08,28,12,54,20.50
2007,08,28,12,55,20.50
2007,08,28,12,56,20.50
2007,08,28,12,57,20.60
2007,08,28,12,58,20.70
2007,08,28,12,59,20.80
2007,08,28,13,00,20.80
2007,08,28,13,01,20.80
2007,08,28,13,02,20.90
2007,08,28,13,03,20.90
2007,08,28,13,04,20.90
2007,08,28,13,05,20.90
2007,08,28,13,06,20.80
2007,08,28,13,07,20.90
2007,08,28,13,08,20.90
2007,08,28,13,09,20.90
2007,08,28,13,10,21.00
2007,08,28,13,11,21.00
2007,08,28,13,12,21.10
2007,08,28,13,13,21.20
2007,08,28,13,14,21.20
2007,08,28,13,15,21.20
2007,08,28,13,16,21.20
2007,08,28,13,17,21.20
2007,08,28,13,18,21.20
2007,08,28,13,19,21.20
2007,08,28,13,20,21.20
2007,08,28,13,21,21.30
2007,08,28,13,22,21.20
2007,08,28,13,23,21.30
2007,08,28,13,24,21.30
2007,08,28,13,25,21.30
2007,08,28,13,26,21.30
2007,08,28,13,27,21.30
2007,08,28,13,28,21.30
2007,08,28,13,29,21.30
2007,08,28,13,30,21.30
2007,08,28,13,31,21.30
2007,08,28,13,32,21.30
2007,08,28,13,33,21.30
2007,08,28,13,34,21.20
2007,08,28,13,35,21.20
2007,08,28,13,36,21.30
2007,08,28,13,37,21.20
2007,08,28,13,38,21.20
2007,08,28,13,39,21.30
2007,08,28,13,40,21.30
2007,08,28,13,41,21.30
2007,08,28,13,42,21.30
2007,08,28,13,43,21.30
2007,08,28,13,44,21.30
2007,08,28,13,45,21.30
2007,08,28,13,46,21.30
2007,08,28,13,47,21.20
2007,08,28,13,48,21.10
2007,08,28,13,49,21.00
2007,08,28,13,50,21.00
2007,08,28,13,51,21.00
2007,08,28,13,52,21.00
2007,08,28,13,53,20.90
2007,08,28,13,54,20.90
2007,08,28,13,55,20.90
2007,08,28,13,56,20.90
2007,08,28,13,57,20.90
2007,08,28,13,58,20.90
2007,08,28,13,59,20.90
2007,08,28,14,00,21.00
2007,08,28,14,01,21.00
2007,08,28,14,02,21.00
2007,08,28,14,03,21.00
2007,08,28,14,04,21.10
2007,08,28,14,05,21.10
2007,08,28,14,06,21.10
2007,08,28,14,07,21.10
2007,08,28,14,08,21.20
2007,08,28,14,09,21.20
2007,08,28,14,10,21.30
2007,08,28,14,11,21.30
2007,08,28,14,12,21.30
2007,08,28,14,13,21.30
2007,08,28,14,14,21.30
2007,08,28,14,15,21.30
2007,08,28,14,16,21.30
2007,08,28,14,17,21.30
2007,08,28,14,18,21.30
2007,08,28,14,19,21.30
2007,08,28,14,20,21.30
2007,08,28,14,21,21.30
2007,08,28,14,22,21.40
2007,08,28,14,23,21.50
2007,08,28,14,24,21.60
2007,08,28,14,25,21.60
2007,08,28,14,26,21.60
2007,08,28,14,27,21.60
2007,08,28,14,28,21.50
2007,08,28,14,29,21.40
2007,08,28,14,30,21.30
2007,08,28,14,31,21.30
2007,08,28,14,32,21.30
2007,08,28,14,33,21.30
2007,08,28,14,34,21.40
2007,08,28,14,35,21.50
2007,08,28,14,36,21.60
2007,08,28,14,37,21.60
2007,08,28,14,38,21.60
2007,08,28,14,39,21.60
2007,08,28,14,40,21.60
2007,08,28,14,41,21.60
2007,08,28,14,42,21.60
2007,08,28,14,43,21.60
2007,08,28,14,44,21.60
2007,08,28,14,45,21.60
2007,08,28,14,46,21.60
2007,08,28,14,47,21.70
2007,08,28,14,48,21.70
2007,08,28,14,49,21.80
2007,08,28,14,50,21.80
2007,08,28,14,51,21.70
2007,08,28,14,52,21.70
2007,08,28,14,53,21.70
2007,08,28,14,54,21.70
2007,08,28,14,55,21.70
2007,08,28,14,56,21.70
2007,08,28,14,57,21.60
2007,08,28,14,58,21.60
2007,08,28,14,59,21.60
2007,08,28,15,00,21.60
2007,08,28,15,01,21.50
2007,08,28,15,02,21.50
2007,08,28,15,03,21.40
2007,08,28,15,04,21.50
2007,08,28,15,05,21.60
2007,08,28,15,06,21.60
2007,08,28,15,07,21.60
2007,08,28,15,08,21.60
2007,08,28,15,09,21.60
2007,08,28,15,10,21.60
2007,08,28,15,11,21.60
2007,08,28,15,12,21.60
2007,08,28,15,13,21.60
2007,08,28,15,14,21.70
2007,08,28,15,15,21.80
2007,08,28,15,16,21.90
2007,08,28,15,17,22.00
2007,08,28,15,18,22.10
2007,08,28,15,19,22.10
2007,08,28,15,20,22.10
2007,08,28,15,21,22.10
2007,08,28,15,22,22.10
2007,08,28,15,23,22.10
2007,08,28,15,24,22.20
2007,08,28,15,25,22.20
2007,08,28,15,26,22.10
2007,08,28,15,27,22.00
2007,08,28,15,28,22.00
2007,08,28,15,29,22.00
2007,08,28,15,30,21.90
2007,08,28,15,31,21.90
2007,08,28,15,32,21.90
2007,08,28,15,33,22.00
2007,08,28,15,34,22.00
2007,08,28,15,35,21.90
2007,08,28,15,36,21.90
2007,08,28,15,37,21.90
2007,08,28,15,38,21.90
2007,08,28,15,39,21.90
2007,08,28,15,40,21.90
2007,08,28,15,41,21.90
2007,08,28,15,42,21.90
2007,08,28,15,43,21.90
2007,08,28,15,44,21.90
2007,08,28,15,45,21.90
2007,08,28,15,46,22.00
2007,08,28,15,47,22.00
2007,08,28,15,48,22.10
2007,08,28,15,49,22.10
2007,08,28,15,50,22.10
2007,08,28,15,51,22.00
2007,08,28,15,52,21.90
2007,08,28,15,53,21.90
2007,08,28,15,54,22.00
2007,08,28,15,55,22.00
2007,08,28,15,56,22.00
2007,08,28,15,57,22.00
2007,08,28,15,58,22.00
2007,08,28,15,59,22.10
2007,08,28,16,00,22.10
2007,08,28,16,01,22.10
2007,08,28,16,02,22.20
2007,08,28,16,03,22.20
2007,08,28,16,04,22.20
2007,08,28,16,05,22.30
2007,08,28,16,06,22.30
2007,08,28,16,07,22.40
2007,08,28,16,08,22.40
2007,08,28,16,09,22.40
2007,08,28,16,10,22.40
2007,08,28,16,11,22.40
2007,08,28,16,12,22.40
2007,08,28,16,13,22.30
2007,08,28,16,14,22.20
2007,08,28,16,15,22.20
2007,08,28,16,16,22.20
2007,08,28,16,17,22.30
2007,08,28,16,18,22.30
2007,08,28,16,19,22.30
2007,08,28,16,20,22.30
2007,08,28,16,21,22.30
2007,08,28,16,22,22.30
2007,08,28,16,23,22.30
2007,08,28,16,24,22.40
2007,08,28,16,25,22.40
2007,08,28,16,26,22.50
2007,08,28,16,27,22.60
2007,08,28,16,28,22.70
2007,08,28,16,29,22.70
2007,08,28,16,30,22.60
2007,08,28,16,31,22.60
2007,08,28,16,32,22.50
2007,08,28,16,33,22.40
2007,08,28,16,34,22.40
2007,08,28,16,35,22.40
2007,08,28,16,36,22.40
2007,08,28,16,37,22.30
2007,08,28,16,38,22.30
2007,08,28,16,39,22.30
2007,08,28,16,40,22.30
2007,08,28,16,41,22.20
2007,08,28,16,42,22.20
2007,08,28,16,43,22.10
2007,08,28,16,44,22.10
2007,08,28,16,45,22.10
2007,08,28,16,46,22.10
2007,08,28,16,47,22.10
2007,08,28,16,48,22.10
2007,08,28,16,49,22.00
2007,08,28,16,50,22.00
2007,08,28,16,51,22.00
2007,08,28,16,52,22.00
2007,08,28,16,53,22.00
2007,08,28,16,54,22.00
2007,08,28,16,55,22.00
2007,08,28,16,56,22.10
2007,08,28,16,57,22.10
2007,08,28,16,58,22.20
2007,08,28,16,59,22.30
2007,08,28,17,00,22.40
2007,08,28,17,01,22.50
2007,08,28,17,02,22.50
2007,08,28,17,03,22.50
2007,08,28,17,04,22.50
2007,08,28,17,05,22.50
2007,08,28,17,06,22.50
2007,08,28,17,07,22.50
2007,08,28,17,08,22.50
2007,08,28,17,09,22.50
2007,08,28,17,10,22.50
2007,08,28,17,11,22.50
2007,08,28,17,12,22.40
2007,08,28,17,13,22.40
2007,08,28,17,14,22.40
2007,08,28,17,15,22.40
2007,08,28,17,16,22.40
2007,08,28,17,17,22.40
2007,08,28,17,18,22.40
2007,08,28,17,19,22.40
2007,08,28,17,20,22.50
2007,08,28,17,21,22.50
2007,08,28,17,22,22.50
2007,08,28,17,23,22.60
2007,08,28,17,24,22.60
2007,08,28,17,25,22.60
2007,08,28,17,26,22.70
2007,08,28,17,27,22.70
2007,08,28,17,28,22.70
2007,08,28,17,29,22.70